Погода в Воронеже

Погода в Воронеже : погода сейчас, прогноз погоды и архив. Всё, что Вы хотите узнать о погоде в Воронеже!

Хотите узнать прогноз погоды в Воронеже? Тогда Вам сюда: Погода в Воронеже

Поиск расширенной информации на нашем сайте:

Другие новости

Новости СМИ2

Главная страница сайта

Новости сайта

02.10.2013

Напоминаем, что на нашем новом сайте вы можете получить высокодетализированные прогнозы погоды по пунктам России, СНГ и мира (включающие важные для авиации метеовеличины, такие как направление и скорость ветра, видимость, явления погоды, количество и форма облачности, нижняя и верхняя граница облачности), а также ознакомиться с разнообразными материалами по авиационной метеорологии и подборкой полезных ссылок на эту тему.

Сайт Метеоцентр.Азия посвящён разработке технологий оптимизации авиаметеорологического обслуживания, включая проектирование и перспективное создание нескольких автоматизированных авиаметеорологических систем:
- система выпуска высокодетальных прогностических карт явлений погоды для нижнего воздушного пространства по России и ближнему зарубежью;
- система верификации прогнозов TAF (выпускаемых синоптиками официальных АМСГ РФ и ближнего зарубежья) и AUTOTAF (выпускаемых сайтом Метеоцентр.Азия) - выявление ошибок, онлайн-сопоставление с фактической погодой METAR, автоматическое внесение коррективов в прогнозы при резком отклонении фактической погоды от прогноза, подсчёт оправдываемости прогнозов по элементам и в целом;
- система обработки, анализа и отображения авиаметеорологической информации для применения провайдерами метеорологической информации.


Погода в Воронеже - сегодня

Время (UTC), дата Ветер
(°,м/с) 
Видим.   Явления Облачность Т
(°С)
Тd
(°С)
f(%) Тe
(°С)
Pmin
(гПа)
dP
(гПа)
Po
(мм)
O2
(г/м3)
Тmin Tmax R s Состояние
почвы
12 23.02.17 200 (Ю) 3{11}  2000 м  снег{ливн. осадки}  10/10 200 м 
[Frnb|Ns]
+0.7 -0.1 94 -1  990.4  -3.5  729  293           
15 23.02.17 270 (З) 6{10}  10 км  слаб. дождь{снег}  10/10 300 м 
[Frnb|Ns]
+1.5 +0.1 90 -2  989.9  -0.5  729  292    +1.5     
18 23.02.17 270 (З) 6{11}  10 км  {снег, дождь}  6/6 600 м 
[Sc]
+1.6 -0.9 83 -2  992.6  2.6  731  293           
21 23.02.17 270 (З) 10 км    10/10 600 м 
[Sc]
+2 -0.8 82 -1  995.3  2.7  733  293           
00 24.02.17 250 (З) 5{10}  10 км    10/10 600 м 
[Sc]
+2.4 -0.6 81 998.2  2.8  735  294           
03 24.02.17 250 (З) 4{10}  10 км    10/8 600 м средняя 
[Sc|Ac trans]
+2.1 -1 80 1000.2  736  295  +1.2    0.0  35  равномерный
мокрый или
старый снег
100% 
06 24.02.17 220 (ЮЗ) 10 км    8/6 1000 м средняя 
[Sc diur, vesp|Ac trans]
+2.5 -0.8 79 +2  999.9  0.6  736  294           
09 24.02.17 200 (Ю) 4000 м  слаб. дождь  10/10 300 м 
[Frnb|Ns]
+1.7 +0.1 89 +1  1001.7  0.5  737  295           
12 24.02.17 180 (Ю) 4{10}  10 км  {снег, дождь}  9/0 средняя 
[Ac trans]
+3.2 -0.3 78 +1  998  -3.4  735  293           
15 24.02.17 200 (Ю) 10 км    8/0 средняя, верхняя 
[Ac trans|Ci fib]
+3.8 -0.2 75 +3  996.1  -1.9  734  291    +3.8  0.7     
18 24.02.17 230 (ЮЗ) 10 км    4/0 средняя 
[Ac trans]
+4.6 +1 77 +3  996.1  -0.1  734  290           
21 24.02.17 230 (ЮЗ) 10 км    8/0 средняя 
[Ac trans]
+4.8 +0.7 75 +4  997.5  1.4  735  291           
00 25.02.17 250 (З) 10 км    4/0 средняя 
[Ac trans]
+3.9 +0.2 77 +3  998.1  0.5  735  292           
03 25.02.17 230 (ЮЗ) 10 км    4/0 средняя 
[Ac trans]
+3.6 +0.4 80 +3  998.7  0.6  735  292  +3.6      31  равномерный
мокрый или
старый снег
100% 
06 25.02.17 220 (ЮЗ) 10 км    10/0 средняя 
[Ac und]
+3.7 +0 77 +3  998.8  0.1  736  292  +3.3         
09 25.02.17 300 (СЗ) 8-13{17}  10 км    10/8 600 м кучево-дожд., средняя 
[Cb calv|Ac trans]
+1.4 -1.8 79 -3  1001.3  2.2  737  296           
12 25.02.17 300 (СЗ) 6-10{15}  10 км    10/8 600 м средняя 
[Sc diur, vesp|Ac cuf]
+0.1 -4.8 70 -3  1003.9  2.5  739  298           
15 25.02.17 300 (СЗ) 5{12}  10 км    8/0 средняя 
[Ac trans]
-1.3 -6.8 66 -5  1005.2  1.3  740  300    +4       
18 25.02.17 270 (З) 10 км    ясно 
-2 -7.4 66 -5  1007.4  2.1  742  302           
21 25.02.17 270 (З) 10 км    ясно 
-2.8 -8.5 65 -6  1008.9  1.4  743  303           
00 26.02.17 260 (З) 10 км    ясно 
-3.4 -7.3 74 -7  1009.8  0.9  743  304           
03 26.02.17 260 (З) 5{11}  10 км    3/0 средняя 
[Ac trans]
-3.8 -7.9 73 -7  1011.2  1.3  744  305  -3.8      30  равномерный
мокрый или
старый снег
100% 
06 26.02.17 260 (З) 4000 м  слаб. ливневой снег  9/9 300 м кучево-дожд. 
[Cb calv]
-3 -5 86 -7  1012.6  1.4  745  304  -4         
09 26.02.17 290 (З) 8-12{14}  10 км  {ливн. осадки}  8/8 600 м кучево-дожд. 
[Cb calv]
-1.8 -8.8 59 -6  1015.5  2.9  748  304           
12 26.02.17 270 (З) 6-10{13}  10 км  {ливн. осадки}  6/6 1000 м 
[Sc diur, vesp]
-1.2 -8.3 58 -5  1016.4  0.9  748  304           
Время (UTC), дата Ветер
(°,м/с) 
Видим.   Явления Облачность Т
(°С)
Тd
(°С)
f(%) Тe
(°С)
Pmin
(гПа)
dP
(гПа)
Po
(мм)
O2
(г/м3)
Тmin Tmax R s Состояние
почвы

Для получения пояснительной информации подведите курсор к названию столбца.

ПОГОДА в Воронеже - архив

Всё, что Вы хотите узнать о погоде в Воронеже - удобно и подробно!

Выберите нужную дату (начиная с 1 января 2015* года) и нажмите кнопку "Найти".
Будут отображены архивные сводки погоды по пункту Воронеж, начиная с указанной даты.


Отображать данные в формате CSV (для использования в таблицах Excel)


Внимание! Наш архив погоды предназначен исключительно для личного некоммерческого использования в познавательных целях. Если Вам необходимы официальные справки о состоянии погоды (для производственных, юридических, коммерческих и т.п. целей), обращайтесь в органы Росгидромета.

*Примечание: данная дата относится к архиву по метеостанциям СССР (Россия, СНГ, Балтия).
Архив по метеостанциям Зарубежной Европы и Азии (кроме Китая) хранится 10 дней, по другим регионам земного шара (Китай, Африка, Америка, Австралия, Океания) - 1 день.

Воронеж - район местоположения метеостанции


Название, широта, долгота, высота метеостанции:
Воронеж (город) 51.6°ш. 39.2°д. 104 м над ур. моря [Российская Федерация]

Дополнительная информация

В oтличие oт бoльшинства пoгoдных сайтoв мы публикуем пoдрoбную метеoинфoрмацию в детальнoм прoфессиoнальнoм фoрмате.

Характеристики температуры и влажнoсти вoздуха измеряются на высoте 2 м в тени вдали oт зданий и деревьев.
Скoрoсть ветра измеряется на высoте 10 м (на урoвне рoста челoвека скoрoсть ветра ниже в 1.5-2 раза). Если метеoстанция нахoдится в гoрoде или в лесу, тo скoрoсть ветра занижена на 2-4 м/с пo сравнению с oткрытым местoм. Скoрoсть ветра над акватoриями крупных рек и oзёр, а также на вершинах хoлмoв на 2-5 м/с выше, чем в oбычных услoвиях.
Атмoсфернoе давление в разных тoчках местнoсти мoжет значительнo oтличаться oт давления на метеoстанции, в зависимoсти oт услoвий рельефа (при пoдъёме на 10 м давление пoнижается примернo на 1 мм рт.ст.).